TAM8081 SABE-SBGR

Flight info

Callsign TAM8081
Flight time 1h 59m
Altitude 39000
Route KUKEN UM654 GAMOT UZ68 DOLDI UM400 SAVLU UZ121 BUXUK
Aircraft A20N/M-SDE3FGHIJ2RWXY/LB1

Departure

Time 2026-05-05 15:46
Airport Aeroparque Jorge Newbery (SABE)

Arrival

Time 2026-05-05 17:45
Airport São Paulo/Guarulhos–Governor André Franco Montoro International Airport (SBGR)
Time Latitude Longitude Altitude Speed Heading
2026-05-05 15:42 -34.55747 -58.41722 27 ft 0 kts 297°
2026-05-05 15:42 -34.55740 -58.41739 27 ft 3 kts 297°
2026-05-05 15:43 -34.55722 -58.41779 27 ft 6 kts 300°
2026-05-05 15:43 -34.55695 -58.41830 27 ft 7 kts 305°
2026-05-05 15:43 -34.55661 -58.41890 27 ft 9 kts 305°
2026-05-05 15:43 -34.55627 -58.41953 27 ft 9 kts 302°
2026-05-05 15:44 -34.55589 -58.42021 27 ft 10 kts 305°
2026-05-05 15:44 -34.55544 -58.42096 27 ft 11 kts 307°
2026-05-05 15:44 -34.55494 -58.42178 27 ft 12 kts 308°
2026-05-05 15:44 -34.55439 -58.42266 27 ft 13 kts 307°
2026-05-05 15:45 -34.55387 -58.42349 27 ft 10 kts 307°
2026-05-05 15:45 -34.55357 -58.42431 27 ft 11 kts 281°
2026-05-05 15:45 -34.55366 -58.42516 27 ft 8 kts 223°
2026-05-05 15:45 -34.55413 -58.42503 27 ft 11 kts 117°
2026-05-05 15:46 -34.55555 -58.42245 27 ft 77 kts 124°
2026-05-05 15:46 -34.56001 -58.41440 28 ft 151 kts 124°
2026-05-05 15:46 -34.56634 -58.40310 556 ft 168 kts 123°
2026-05-05 15:46 -34.57295 -58.39099 1223 ft 180 kts 118°
2026-05-05 15:47 -34.57557 -58.37622 1784 ft 192 kts 76°
2026-05-05 15:47 -34.57151 -58.36647 2172 ft 199 kts 45°
2026-05-05 15:47 -34.55545 -58.35378 2951 ft 222 kts 30°
2026-05-05 15:47 -34.54195 -58.34293 3506 ft 245 kts 31°
2026-05-05 15:48 -34.52760 -58.33062 4184 ft 263 kts 32°
2026-05-05 15:48 -34.51254 -58.31735 5073 ft 272 kts 32°
2026-05-05 15:48 -34.49743 -58.30365 6045 ft 277 kts 32°
2026-05-05 15:48 -34.48219 -58.28948 6987 ft 283 kts 32°
2026-05-05 15:49 -34.46645 -58.27480 7909 ft 288 kts 32°
2026-05-05 15:49 -34.45055 -58.26008 8785 ft 294 kts 32°
2026-05-05 15:49 -34.43351 -58.24700 9608 ft 293 kts 17°
2026-05-05 15:49 -34.41383 -58.24236 10467 ft 287 kts 355°
2026-05-05 15:50 -34.39368 -58.24390 11035 ft 300 kts 351°
2026-05-05 15:50 -34.37236 -58.24594 11473 ft 318 kts 351°
2026-05-05 15:50 -34.34981 -58.24824 11872 ft 336 kts 352°
2026-05-05 15:50 -34.32574 -58.25084 12235 ft 354 kts 352°
2026-05-05 15:51 -34.30045 -58.25367 12554 ft 372 kts 351°
2026-05-05 15:51 -34.27430 -58.25604 12965 ft 387 kts 357°
2026-05-05 15:51 -34.24703 -58.25057 13604 ft 399 kts 14°
2026-05-05 15:51 -34.22157 -58.23830 14346 ft 403 kts 20°
2026-05-05 15:52 -34.19614 -58.22368 15050 ft 408 kts 24°
2026-05-05 15:52 -34.17120 -58.20647 15730 ft 414 kts 28°
2026-05-05 15:52 -34.14733 -58.18670 16396 ft 420 kts 32°
2026-05-05 15:52 -34.12382 -58.16586 17030 ft 424 kts 32°
2026-05-05 15:53 -34.09993 -58.14457 17659 ft 428 kts 32°
2026-05-05 15:53 -34.07595 -58.12328 18246 ft 432 kts 32°
2026-05-05 15:53 -34.05168 -58.10182 18802 ft 437 kts 32°
2026-05-05 15:53 -34.02699 -58.08009 19334 ft 441 kts 32°
2026-05-05 15:54 -34.00214 -58.05828 19867 ft 446 kts 31°
2026-05-05 15:54 -33.97709 -58.03634 20400 ft 450 kts 31°
2026-05-05 15:54 -33.95171 -58.01411 20919 ft 454 kts 31°
2026-05-05 15:54 -33.92606 -57.99169 21415 ft 459 kts 31°
2026-05-05 15:55 -33.90001 -57.96896 21902 ft 463 kts 31°
2026-05-05 15:55 -33.87390 -57.94625 22394 ft 467 kts 30°
2026-05-05 15:55 -33.84743 -57.92330 22950 ft 469 kts 30°
2026-05-05 15:55 -33.82117 -57.90050 23484 ft 472 kts 30°
2026-05-05 15:56 -33.79445 -57.87729 23975 ft 476 kts 30°
2026-05-05 15:56 -33.76758 -57.85395 24443 ft 479 kts 30°
2026-05-05 15:56 -33.74041 -57.83037 24874 ft 483 kts 30°
2026-05-05 15:56 -33.71302 -57.80658 25293 ft 487 kts 31°
2026-05-05 15:57 -33.68581 -57.78295 25662 ft 491 kts 30°
2026-05-05 15:57 -33.65783 -57.75866 26046 ft 495 kts 30°
2026-05-05 15:57 -33.63001 -57.73455 26437 ft 497 kts 31°
2026-05-05 15:57 -33.60183 -57.71018 26907 ft 498 kts 30°
2026-05-05 15:58 -33.57409 -57.68617 27408 ft 498 kts 30°
2026-05-05 15:58 -33.54606 -57.66192 27926 ft 496 kts 30°
2026-05-05 15:58 -33.51796 -57.63768 28426 ft 496 kts 30°
2026-05-05 15:58 -33.48989 -57.61345 28870 ft 496 kts 30°
2026-05-05 15:59 -33.46203 -57.58942 29323 ft 495 kts 30°
2026-05-05 15:59 -33.43425 -57.56549 29754 ft 495 kts 30°
2026-05-05 15:59 -33.40632 -57.54142 30152 ft 495 kts 30°
2026-05-05 15:59 -33.37828 -57.51730 30547 ft 495 kts 30°
2026-05-05 16:00 -33.35045 -57.49338 30946 ft 494 kts 30°
2026-05-05 16:00 -33.32275 -57.46960 31286 ft 495 kts 30°
2026-05-05 16:00 -33.29469 -57.44552 31634 ft 495 kts 30°
2026-05-05 16:00 -33.26693 -57.42170 32021 ft 494 kts 29°
2026-05-05 16:01 -33.24087 -57.39935 32411 ft 492 kts 29°
2026-05-05 16:01 -33.21461 -57.37687 32782 ft 491 kts 29°
2026-05-05 16:01 -33.18697 -57.35323 33151 ft 490 kts 29°
2026-05-05 16:01 -33.15904 -57.32928 33487 ft 490 kts 29°
2026-05-05 16:02 -33.13167 -57.30573 33789 ft 490 kts 28°
2026-05-05 16:02 -33.10390 -57.28188 34130 ft 489 kts 28°
2026-05-05 16:02 -33.07632 -57.25827 34432 ft 489 kts 28°
2026-05-05 16:02 -33.04882 -57.23481 34717 ft 489 kts 28°
2026-05-05 16:03 -33.02128 -57.21135 35018 ft 489 kts 28°
2026-05-05 16:03 -32.99370 -57.18787 35331 ft 488 kts 28°
2026-05-05 16:03 -32.96612 -57.16441 35643 ft 488 kts 28°
2026-05-05 16:03 -32.93866 -57.14109 35920 ft 488 kts 28°
2026-05-05 16:04 -32.91071 -57.11737 36177 ft 488 kts 28°
2026-05-05 16:04 -32.88329 -57.09414 36466 ft 487 kts 28°
2026-05-05 16:04 -32.85558 -57.07077 36717 ft 487 kts 28°
2026-05-05 16:04 -32.82810 -57.04762 36907 ft 488 kts 28°
2026-05-05 16:05 -32.80041 -57.02428 37092 ft 489 kts 28°
2026-05-05 16:05 -32.77264 -57.00083 37311 ft 490 kts 28°
2026-05-05 16:05 -32.74491 -56.97739 37505 ft 490 kts 28°
2026-05-05 16:05 -32.71706 -56.95390 37663 ft 492 kts 28°
2026-05-05 16:06 -32.68929 -56.93049 37784 ft 494 kts 28°
2026-05-05 16:06 -32.66128 -56.90688 37922 ft 495 kts 29°
2026-05-05 16:06 -32.63332 -56.88331 38071 ft 496 kts 28°
2026-05-05 16:06 -32.60502 -56.85946 38225 ft 497 kts 28°
2026-05-05 16:07 -32.57695 -56.83587 38367 ft 498 kts 29°
2026-05-05 16:07 -32.54849 -56.81194 38487 ft 499 kts 28°
2026-05-05 16:07 -32.52044 -56.78841 38623 ft 500 kts 28°
2026-05-05 16:07 -32.49182 -56.76442 38750 ft 500 kts 28°
2026-05-05 16:08 -32.46351 -56.74073 38853 ft 502 kts 28°
2026-05-05 16:08 -32.40660 -56.69315 39003 ft 505 kts 29°
2026-05-05 16:09 -32.34916 -56.64513 39002 ft 506 kts 29°
2026-05-05 16:09 -32.29171 -56.59717 39007 ft 507 kts 29°
2026-05-05 16:10 -32.23408 -56.54916 39003 ft 507 kts 29°
2026-05-05 16:10 -32.17646 -56.50118 39004 ft 507 kts 29°
2026-05-05 16:11 -32.11899 -56.45348 39013 ft 507 kts 29°
2026-05-05 16:12 -32.00346 -56.35783 39013 ft 508 kts 29°
2026-05-05 16:13 -31.85961 -56.23862 39020 ft 508 kts 28°
2026-05-05 16:13 -31.80173 -56.19112 39020 ft 509 kts 28°
2026-05-05 16:14 -31.68544 -56.09561 39019 ft 510 kts 28°
2026-05-05 16:15 -31.56901 -56.00029 39019 ft 512 kts 28°
2026-05-05 16:16 -31.45250 -55.90513 39019 ft 511 kts 29°
2026-05-05 16:17 -31.36517 -55.83401 39027 ft 512 kts 29°
2026-05-05 16:18 -31.27739 -55.76266 39026 ft 512 kts 29°
2026-05-05 16:19 -31.18967 -55.69157 39036 ft 513 kts 29°
2026-05-05 16:19 -31.10149 -55.62019 39044 ft 515 kts 29°
2026-05-05 16:20 -30.98377 -55.52502 39045 ft 517 kts 31°
2026-05-05 16:22 -30.85489 -55.38272 39028 ft 527 kts 44°
2026-05-05 16:23 -30.75560 -55.25811 39012 ft 528 kts 44°
2026-05-05 16:23 -30.68068 -55.16484 39026 ft 528 kts 43°
2026-05-05 16:24 -30.63057 -55.10272 39022 ft 527 kts 43°
2026-05-05 16:25 -30.55531 -55.00960 39020 ft 528 kts 44°
2026-05-05 16:25 -30.48005 -54.91674 39022 ft 527 kts 43°
2026-05-05 16:26 -30.37964 -54.79321 39025 ft 528 kts 43°
2026-05-05 16:27 -30.32938 -54.73154 39027 ft 528 kts 44°
2026-05-05 16:27 -30.27913 -54.66994 39028 ft 528 kts 44°
2026-05-05 16:28 -30.22875 -54.60828 39029 ft 528 kts 44°
2026-05-05 16:28 -30.17842 -54.54683 39029 ft 528 kts 44°
2026-05-05 16:29 -30.12793 -54.48521 39037 ft 528 kts 44°
2026-05-05 16:29 -30.07745 -54.42376 39047 ft 529 kts 44°
2026-05-05 16:30 -30.02717 -54.36266 39036 ft 529 kts 44°
2026-05-05 16:30 -29.97662 -54.30105 39044 ft 529 kts 43°
2026-05-05 16:31 -29.92614 -54.23956 39040 ft 528 kts 43°
2026-05-05 16:31 -29.87559 -54.17840 39049 ft 528 kts 43°
2026-05-05 16:32 -29.82461 -54.11715 39049 ft 529 kts 43°
2026-05-05 16:32 -29.77378 -54.05605 39043 ft 529 kts 43°
2026-05-05 16:33 -29.72311 -53.99505 39057 ft 529 kts 43°
2026-05-05 16:33 -29.67237 -53.93407 39060 ft 529 kts 44°
2026-05-05 16:34 -29.62147 -53.87296 39072 ft 529 kts 44°
2026-05-05 16:34 -29.57053 -53.81190 39077 ft 529 kts 44°
2026-05-05 16:35 -29.51990 -53.75126 39089 ft 529 kts 44°
2026-05-05 16:35 -29.46921 -53.69070 39092 ft 529 kts 44°
2026-05-05 16:36 -29.41807 -53.62967 39094 ft 528 kts 44°
2026-05-05 16:36 -29.36745 -53.56938 39099 ft 529 kts 44°
2026-05-05 16:37 -29.31644 -53.50867 39103 ft 528 kts 44°
2026-05-05 16:37 -29.26536 -53.44804 39110 ft 529 kts 44°
2026-05-05 16:38 -29.21472 -53.38797 39104 ft 528 kts 44°
2026-05-05 16:38 -29.16366 -53.32746 39104 ft 528 kts 44°
2026-05-05 16:39 -29.11279 -53.26697 39112 ft 528 kts 44°
2026-05-05 16:39 -29.06196 -53.20681 39105 ft 528 kts 43°
2026-05-05 16:40 -29.01088 -53.14658 39119 ft 528 kts 43°
2026-05-05 16:40 -28.95989 -53.08653 39124 ft 527 kts 43°
2026-05-05 16:41 -28.90876 -53.02645 39125 ft 527 kts 43°
2026-05-05 16:41 -28.85753 -52.96659 39128 ft 526 kts 43°
2026-05-05 16:42 -28.80652 -52.90715 39117 ft 526 kts 43°
2026-05-05 16:42 -28.75814 -52.85062 39125 ft 527 kts 44°
2026-05-05 16:43 -28.70673 -52.79059 39123 ft 527 kts 44°
2026-05-05 16:43 -28.65569 -52.73102 39133 ft 528 kts 44°
2026-05-05 16:44 -28.60433 -52.67118 39139 ft 528 kts 44°
2026-05-05 16:44 -28.55309 -52.61158 39143 ft 527 kts 44°
2026-05-05 16:45 -28.50213 -52.55236 39140 ft 527 kts 44°
2026-05-05 16:45 -28.45079 -52.49283 39145 ft 527 kts 44°
2026-05-05 16:46 -28.39958 -52.43350 39158 ft 527 kts 44°
2026-05-05 16:46 -28.34829 -52.37421 39168 ft 527 kts 44°
2026-05-05 16:47 -28.29696 -52.31476 39171 ft 526 kts 44°
2026-05-05 16:47 -28.24581 -52.25558 39181 ft 527 kts 43°
2026-05-05 16:48 -28.19452 -52.19648 39187 ft 528 kts 43°
2026-05-05 16:48 -28.14332 -52.13765 39184 ft 526 kts 44°
2026-05-05 16:49 -28.09211 -52.07890 39190 ft 525 kts 44°
2026-05-05 16:49 -28.04080 -52.02008 39187 ft 525 kts 44°
2026-05-05 16:50 -27.98971 -51.96164 39192 ft 524 kts 43°
2026-05-05 16:50 -27.93845 -51.90309 39174 ft 525 kts 44°
2026-05-05 16:51 -27.88699 -51.84439 39192 ft 526 kts 44°
2026-05-05 16:51 -27.83544 -51.78603 39191 ft 526 kts 44°
2026-05-05 16:52 -27.78375 -51.72741 39191 ft 527 kts 44°
2026-05-05 16:52 -27.73198 -51.66862 39172 ft 527 kts 44°
2026-05-05 16:53 -27.68047 -51.61017 39186 ft 527 kts 44°
2026-05-05 16:53 -27.62876 -51.55157 39197 ft 527 kts 44°
2026-05-05 16:54 -27.57732 -51.49339 39205 ft 527 kts 44°
2026-05-05 16:54 -27.52553 -51.43488 39210 ft 527 kts 44°
2026-05-05 16:55 -27.47377 -51.37647 39213 ft 527 kts 44°
2026-05-05 16:55 -27.42181 -51.31777 39207 ft 527 kts 44°
2026-05-05 16:56 -27.37038 -51.25964 39213 ft 527 kts 44°
2026-05-05 16:56 -27.31841 -51.20126 39225 ft 528 kts 43°
2026-05-05 16:57 -27.26642 -51.14301 39236 ft 527 kts 44°
2026-05-05 16:57 -27.21461 -51.08508 39234 ft 526 kts 44°
2026-05-05 16:58 -27.16299 -51.02746 39236 ft 526 kts 44°
2026-05-05 16:58 -27.11109 -50.96956 39246 ft 527 kts 44°
2026-05-05 16:59 -27.05913 -50.91172 39233 ft 527 kts 44°
2026-05-05 16:59 -27.00708 -50.85383 39236 ft 528 kts 44°
2026-05-05 17:00 -26.95505 -50.79604 39242 ft 527 kts 44°
2026-05-05 17:00 -26.90274 -50.73803 39255 ft 528 kts 44°
2026-05-05 17:01 -26.85053 -50.68049 39265 ft 527 kts 44°
2026-05-05 17:01 -26.79833 -50.62291 39266 ft 526 kts 44°
2026-05-05 17:02 -26.74639 -50.56541 39266 ft 525 kts 44°
2026-05-05 17:02 -26.69489 -50.50822 39250 ft 525 kts 44°
2026-05-05 17:03 -26.64304 -50.45074 39253 ft 526 kts 44°
2026-05-05 17:03 -26.59338 -50.39126 39233 ft 525 kts 51°
2026-05-05 17:04 -26.55137 -50.32558 39242 ft 523 kts 60°
2026-05-05 17:04 -26.51838 -50.25510 39228 ft 520 kts 68°
2026-05-05 17:05 -26.48923 -50.18174 39219 ft 520 kts 69°
2026-05-05 17:05 -26.45989 -50.10828 39222 ft 520 kts 68°
2026-05-05 17:06 -26.43008 -50.03480 39221 ft 519 kts 68°
2026-05-05 17:06 -26.40041 -49.96200 39214 ft 518 kts 68°
2026-05-05 17:07 -26.37073 -49.88931 39219 ft 517 kts 68°
2026-05-05 17:07 -26.34096 -49.81654 39223 ft 517 kts 68°
2026-05-05 17:08 -26.31142 -49.74388 39229 ft 516 kts 68°
2026-05-05 17:08 -26.28192 -49.67122 39223 ft 515 kts 68°
2026-05-05 17:09 -26.25233 -49.59860 39228 ft 515 kts 68°
2026-05-05 17:09 -26.22276 -49.52617 39222 ft 514 kts 68°
2026-05-05 17:10 -26.19300 -49.45394 39223 ft 514 kts 68°
2026-05-05 17:10 -26.16333 -49.38210 39233 ft 513 kts 68°
2026-05-05 17:11 -26.13287 -49.31021 39226 ft 513 kts 64°
2026-05-05 17:11 -26.11435 -49.27644 39222 ft 513 kts 52°
2026-05-05 17:11 -26.08930 -49.24852 39230 ft 510 kts 34°
2026-05-05 17:12 -26.02977 -49.20647 39242 ft 510 kts 28°
2026-05-05 17:12 -25.96894 -49.16640 39243 ft 509 kts 28°
2026-05-05 17:13 -25.90809 -49.12608 39249 ft 509 kts 28°
2026-05-05 17:13 -25.84730 -49.08567 39241 ft 510 kts 28°
2026-05-05 17:14 -25.78636 -49.04515 39241 ft 511 kts 28°
2026-05-05 17:14 -25.72523 -49.00445 39234 ft 510 kts 28°
2026-05-05 17:15 -25.66682 -48.96569 39239 ft 511 kts 29°
2026-05-05 17:15 -25.60589 -48.92530 39230 ft 511 kts 28°
2026-05-05 17:16 -25.54458 -48.88467 39226 ft 512 kts 29°
2026-05-05 17:16 -25.48355 -48.84431 39212 ft 512 kts 29°
2026-05-05 17:17 -25.42158 -48.80547 39175 ft 511 kts 26°
2026-05-05 17:17 -25.35900 -48.76788 39141 ft 511 kts 26°
2026-05-05 17:18 -25.29699 -48.73033 39119 ft 512 kts 26°
2026-05-05 17:18 -25.23430 -48.69227 39118 ft 512 kts 26°
2026-05-05 17:19 -25.17163 -48.65453 39143 ft 513 kts 26°
2026-05-05 17:19 -25.10927 -48.61704 39171 ft 513 kts 26°
2026-05-05 17:20 -25.04636 -48.57921 39208 ft 513 kts 26°
2026-05-05 17:20 -24.98385 -48.54166 39240 ft 514 kts 26°
2026-05-05 17:21 -24.92094 -48.50366 39233 ft 514 kts 27°
2026-05-05 17:22 -24.82710 -48.44711 39192 ft 514 kts 27°
2026-05-05 17:22 -24.76394 -48.40913 39156 ft 515 kts 27°
2026-05-05 17:23 -24.70137 -48.37146 39138 ft 514 kts 27°
2026-05-05 17:23 -24.63860 -48.33358 39139 ft 515 kts 26°
2026-05-05 17:24 -24.58603 -48.30169 39144 ft 515 kts 26°
2026-05-05 17:24 -24.52393 -48.26281 39090 ft 515 kts 34°
2026-05-05 17:24 -24.49684 -48.23762 38860 ft 512 kts 46°
2026-05-05 17:25 -24.47791 -48.21330 38375 ft 508 kts 54°
2026-05-05 17:25 -24.46438 -48.19223 37819 ft 508 kts 57°
2026-05-05 17:25 -24.43860 -48.14945 36605 ft 511 kts 58°
2026-05-05 17:25 -24.41916 -48.11694 35752 ft 511 kts 57°
2026-05-05 17:26 -24.39959 -48.08465 34943 ft 509 kts 57°
2026-05-05 17:26 -24.37991 -48.05259 34087 ft 509 kts 56°
2026-05-05 17:26 -24.36016 -48.02072 33219 ft 509 kts 56°
2026-05-05 17:26 -24.34026 -47.98878 32329 ft 509 kts 56°
2026-05-05 17:27 -24.32009 -47.95652 31392 ft 509 kts 56°
2026-05-05 17:27 -24.30034 -47.92497 30465 ft 509 kts 55°
2026-05-05 17:27 -24.28038 -47.89310 29502 ft 508 kts 55°
2026-05-05 17:27 -24.26048 -47.86139 28479 ft 508 kts 56°
2026-05-05 17:28 -24.24042 -47.82944 27373 ft 508 kts 56°
2026-05-05 17:28 -24.22063 -47.79793 26210 ft 508 kts 56°
2026-05-05 17:28 -24.20053 -47.76597 25117 ft 506 kts 56°
2026-05-05 17:28 -24.18090 -47.73474 24263 ft 499 kts 56°
2026-05-05 17:29 -24.16129 -47.70356 23435 ft 492 kts 56°
2026-05-05 17:29 -24.14217 -47.67316 22658 ft 484 kts 56°
2026-05-05 17:29 -24.12341 -47.64339 22159 ft 471 kts 56°
2026-05-05 17:29 -24.10505 -47.61425 21614 ft 461 kts 56°
2026-05-05 17:30 -24.08694 -47.58554 21083 ft 452 kts 56°
2026-05-05 17:30 -24.07051 -47.55949 20574 ft 447 kts 56°
2026-05-05 17:30 -24.05291 -47.53162 20015 ft 441 kts 56°
2026-05-05 17:30 -24.03580 -47.50452 19485 ft 437 kts 56°
2026-05-05 17:31 -24.01848 -47.47711 18920 ft 433 kts 56°
2026-05-05 17:31 -24.00150 -47.45023 18393 ft 427 kts 56°
2026-05-05 17:31 -23.98474 -47.42371 17846 ft 424 kts 57°
2026-05-05 17:31 -23.96812 -47.39744 17302 ft 419 kts 57°
2026-05-05 17:32 -23.95174 -47.37154 16742 ft 414 kts 57°
2026-05-05 17:32 -23.93546 -47.34582 16177 ft 411 kts 56°
2026-05-05 17:32 -23.91936 -47.32029 15604 ft 407 kts 56°
2026-05-05 17:32 -23.90344 -47.29504 15039 ft 403 kts 56°
2026-05-05 17:33 -23.88759 -47.27003 14493 ft 399 kts 56°
2026-05-05 17:33 -23.87168 -47.24515 13938 ft 395 kts 56°
2026-05-05 17:33 -23.85607 -47.22073 13401 ft 390 kts 56°
2026-05-05 17:33 -23.84069 -47.19661 12864 ft 386 kts 56°
2026-05-05 17:34 -23.82540 -47.17262 12298 ft 382 kts 56°
2026-05-05 17:34 -23.81044 -47.14910 11738 ft 379 kts 56°
2026-05-05 17:34 -23.79559 -47.12578 11299 ft 370 kts 55°
2026-05-05 17:34 -23.78261 -47.10537 11091 ft 357 kts 55°
2026-05-05 17:35 -23.76883 -47.08372 10888 ft 342 kts 55°
2026-05-05 17:35 -23.75533 -47.06252 10708 ft 327 kts 55°
2026-05-05 17:35 -23.74272 -47.04272 10554 ft 314 kts 55°
2026-05-05 17:35 -23.73041 -47.02343 10421 ft 301 kts 54°
2026-05-05 17:36 -23.71865 -47.00501 10307 ft 288 kts 54°
2026-05-05 17:36 -23.70743 -46.98742 10045 ft 285 kts 54°
2026-05-05 17:36 -23.69607 -46.96963 9699 ft 284 kts 54°
2026-05-05 17:36 -23.68488 -46.95210 9373 ft 282 kts 54°
2026-05-05 17:37 -23.67363 -46.93449 9057 ft 279 kts 54°
2026-05-05 17:37 -23.66271 -46.91742 8747 ft 276 kts 54°
2026-05-05 17:37 -23.65174 -46.90024 8446 ft 272 kts 54°
2026-05-05 17:37 -23.64091 -46.88332 8131 ft 269 kts 54°
2026-05-05 17:38 -23.63035 -46.86680 7841 ft 266 kts 54°
2026-05-05 17:38 -23.61968 -46.85012 7540 ft 264 kts 54°
2026-05-05 17:38 -23.60928 -46.83387 7244 ft 262 kts 54°
2026-05-05 17:38 -23.59886 -46.81759 6932 ft 261 kts 54°
2026-05-05 17:39 -23.58850 -46.80139 6626 ft 260 kts 54°
2026-05-05 17:39 -23.57818 -46.78527 6321 ft 258 kts 54°
2026-05-05 17:39 -23.56795 -46.76934 6020 ft 257 kts 54°
2026-05-05 17:39 -23.55771 -46.75339 5714 ft 256 kts 54°
2026-05-05 17:40 -23.54759 -46.73760 5411 ft 255 kts 54°
2026-05-05 17:40 -23.53745 -46.72179 5112 ft 254 kts 54°
2026-05-05 17:40 -23.52727 -46.70592 4812 ft 252 kts 54°
2026-05-05 17:40 -23.51751 -46.69073 4707 ft 240 kts 54°
2026-05-05 17:41 -23.50812 -46.67607 4657 ft 226 kts 54°
2026-05-05 17:41 -23.49937 -46.66244 4612 ft 212 kts 54°
2026-05-05 17:41 -23.49129 -46.64986 4570 ft 199 kts 54°
2026-05-05 17:41 -23.48338 -46.63739 4549 ft 197 kts 58°
2026-05-05 17:42 -23.47699 -46.62428 4545 ft 197 kts 66°
2026-05-05 17:42 -23.47224 -46.61052 4622 ft 188 kts 71°
2026-05-05 17:42 -23.46850 -46.59722 4412 ft 182 kts 73°
2026-05-05 17:42 -23.46503 -46.58406 4167 ft 176 kts 73°
2026-05-05 17:43 -23.46167 -46.57141 3935 ft 171 kts 72°
2026-05-05 17:43 -23.45845 -46.55945 3714 ft 160 kts 72°
2026-05-05 17:43 -23.45544 -46.54841 3526 ft 145 kts 72°
2026-05-05 17:43 -23.45259 -46.53795 3360 ft 142 kts 73°
2026-05-05 17:44 -23.44982 -46.52769 3189 ft 142 kts 73°
2026-05-05 17:44 -23.44702 -46.51740 3018 ft 141 kts 73°
2026-05-05 17:44 -23.44425 -46.50716 2837 ft 140 kts 73°
2026-05-05 17:44 -23.44151 -46.49704 2669 ft 139 kts 73°
2026-05-05 17:45 -23.43882 -46.48694 2496 ft 138 kts 73°
2026-05-05 17:45 -23.43623 -46.47747 2466 ft 111 kts 74°
2026-05-05 17:45 -23.43452 -46.47115 2467 ft 61 kts 75°
2026-05-05 17:45 -23.43336 -46.46917 2467 ft 22 kts 43°
2026-05-05 17:46 -23.43235 -46.46805 2467 ft 18 kts 46°
2026-05-05 17:46 -23.43149 -46.46726 2467 ft 14 kts 14°
2026-05-05 17:46 -23.43050 -46.46747 2467 ft 14 kts 344°
2026-05-05 17:46 -23.42947 -46.46778 2468 ft 15 kts 345°
2026-05-05 17:47 -23.42842 -46.46810 2468 ft 15 kts 343°
2026-05-05 17:47 -23.42771 -46.46868 2468 ft 13 kts 258°
2026-05-05 17:47 -23.42799 -46.46965 2468 ft 13 kts 254°
2026-05-05 17:47 -23.42826 -46.47070 2468 ft 14 kts 255°
2026-05-05 17:48 -23.42855 -46.47180 2467 ft 15 kts 253°
2026-05-05 17:48 -23.42886 -46.47292 2467 ft 15 kts 254°
2026-05-05 17:48 -23.42917 -46.47408 2467 ft 16 kts 254°
2026-05-05 17:48 -23.42949 -46.47529 2467 ft 16 kts 254°
2026-05-05 17:49 -23.42982 -46.47652 2467 ft 17 kts 254°
2026-05-05 17:49 -23.43015 -46.47778 2467 ft 17 kts 254°
2026-05-05 17:49 -23.43049 -46.47905 2467 ft 17 kts 254°
2026-05-05 17:49 -23.43084 -46.48035 2466 ft 17 kts 254°
2026-05-05 17:50 -23.43100 -46.48151 2466 ft 12 kts 304°
2026-05-05 17:50 -23.43013 -46.48169 2466 ft 13 kts
2026-05-05 17:50 -23.42915 -46.48177 2467 ft 14 kts 355°
2026-05-05 17:50 -23.42833 -46.48186 2467 ft 9 kts 354°
2026-05-05 17:51 -23.42802 -46.48208 2467 ft 6 kts 276°
2026-05-05 17:51 -23.42806 -46.48259 2467 ft 4 kts 265°
2026-05-05 17:51 -23.42807 -46.48280 2467 ft 1 kts 265°
2026-05-05 17:51 -23.42808 -46.48281 2467 ft 0 kts 265°